Theta_e
343 349 353 352 352 356 354 357 364 366 365 358 360 365 367 367 368 374 375 375 372 367 365 365 359 359 365 364 362 361 358 362 365 358 354 360 357 356 358 355 352 350 350 351 352 353 353 354 353 354 353 352 353 355 355 355 355 355 354 353 352 352 352 352 353 353 353 354 352 345 341 342 346 351 353 353 352 350 350 351 353 353 353 352 351 350 349 350 350 350 349 349 349 349 350 351 351
346 348 350 355 353 356 359 360 365 364 361 357 361 368 368 369 369 373 374 372 370 363 360 366 363 359 358 355 357 363 361 357 359 360 358 357 356 358 358 355 351 350 351 350 352 353 354 354 352 353 353 351 352 354 354 353 354 355 356 354 352 352 352 351 352 352 352 350 346 342 343 347 350 353 353 352 351 350 350 352 353 352 352 352 352 350 350 350 350 350 349 349 349 350 350 351 352
348 347 349 356 354 356 361 362 364 359 357 357 361 371 369 371 372 371 370 367 367 362 361 369 371 360 356 359 360 365 363 356 355 357 356 357 357 358 357 354 350 349 351 351 352 353 355 355 352 352 351 351 351 351 352 351 352 353 355 355 354 354 352 350 352 351 349 347 346 347 348 350 352 352 351 351 350 350 352 353 353 353 353 353 352 351 350 350 350 349 349 347 348 350 351 352 352
350 351 352 356 357 358 363 366 366 359 357 355 358 369 370 370 370 369 368 366 364 363 366 373 374 360 357 362 358 361 361 356 356 356 356 357 357 358 356 352 349 349 351 353 353 352 355 355 352 350 350 350 350 351 351 351 351 352 354 355 355 355 352 350 351 350 349 349 350 351 352 353 352 352 351 351 351 352 352 352 353 353 354 353 352 351 350 350 350 349 347 347 349 351 351 351 352
352 356 353 355 361 363 366 368 367 362 359 359 360 368 369 366 367 368 369 367 363 365 368 372 371 358 358 362 360 362 359 356 356 356 357 357 357 357 355 351 349 350 352 354 354 353 354 354 351 350 349 349 350 351 352 352 352 352 353 354 354 354 353 351 350 350 351 350 351 353 353 353 351 351 351 351 352 352 352 352 352 353 354 352 350 349 349 349 350 350 349 349 351 353 351 351 352
353 357 354 355 360 361 365 364 362 363 364 366 368 370 368 365 367 367 369 369 365 369 369 370 369 361 363 364 359 358 357 357 357 356 357 357 357 356 354 351 350 351 352 353 353 354 353 353 351 351 350 349 349 352 353 353 352 351 350 351 351 352 351 349 348 349 350 348 351 353 351 350 349 349 350 351 353 353 353 353 353 353 353 351 350 349 350 350 350 351 351 350 352 353 352 352 352
353 359 359 360 361 362 368 363 360 366 366 366 369 370 367 366 367 366 371 372 370 374 372 369 368 367 370 366 358 353 353 357 355 356 357 357 357 356 354 352 351 352 352 352 352 352 353 352 351 352 352 350 349 351 353 352 351 348 348 347 347 348 348 347 347 348 348 347 349 351 349 348 347 347 349 352 354 353 353 353 354 354 352 350 350 349 350 350 350 350 351 351 351 352 353 352 352
353 363 364 364 366 367 368 365 364 367 365 362 365 366 366 367 366 368 372 372 372 374 373 373 369 367 369 366 364 355 352 356 356 357 357 357 357 356 355 352 352 353 353 352 352 351 352 352 352 353 354 354 351 350 351 351 350 348 347 346 345 346 346 346 346 347 346 346 348 348 348 348 347 347 351 353 354 353 354 354 354 354 352 351 351 350 350 351 350 350 351 352 350 350 353 353 352
355 362 365 365 368 366 363 364 364 366 365 362 362 362 364 366 364 368 372 372 372 372 372 376 372 367 363 361 361 355 355 357 356 357 357 357 357 356 354 353 354 355 354 351 351 352 354 354 354 354 354 355 353 353 353 353 351 348 348 346 346 346 345 346 345 346 346 345 346 346 347 347 347 349 353 354 353 353 355 354 354 354 353 353 353 352 352 351 350 350 350 351 350 351 353 353 353
360 363 366 368 366 361 358 362 364 365 363 360 361 361 363 364 363 367 372 370 369 373 373 371 368 368 365 362 360 356 357 356 356 358 357 357 356 355 354 354 355 355 354 352 351 352 354 355 354 354 355 355 355 355 355 353 350 348 348 347 347 346 345 345 345 346 345 345 346 347 347 347 348 351 352 353 353 354 355 354 353 353 354 354 354 354 354 351 349 350 350 350 351 352 353 354 355
364 364 365 369 363 356 357 360 362 364 362 360 360 358 361 364 364 366 369 368 367 373 376 373 368 367 366 364 362 357 355 356 357 357 357 357 356 356 355 356 356 355 355 352 350 351 354 355 354 354 355 355 355 354 354 353 351 348 347 347 347 346 346 347 346 347 346 347 347 347 348 349 350 350 351 352 354 355 353 352 350 352 354 354 354 354 352 350 349 350 350 351 353 354 355 355 355
365 368 369 369 362 359 361 361 363 365 364 364 361 357 359 362 365 368 367 368 370 374 374 373 370 368 370 365 363 357 352 356 356 357 356 356 356 357 357 357 356 356 354 351 350 351 354 357 355 355 354 354 354 352 353 353 351 349 348 348 349 350 351 350 349 349 349 349 349 349 350 350 350 350 351 353 354 354 351 350 349 352 353 353 353 352 350 349 349 350 351 352 352 354 355 355 355
364 372 376 370 363 367 365 363 365 366 367 366 361 358 357 359 365 368 368 368 372 375 369 370 373 373 376 371 365 359 352 353 355 356 355 355 357 357 357 357 357 356 351 348 349 350 353 356 356 356 353 352 351 349 350 350 349 348 348 349 351 351 351 351 351 351 352 352 351 351 351 351 351 352 353 353 353 350 349 350 350 351 352 351 350 349 348 349 349 350 352 352 353 354 356 355 354
364 373 376 372 366 371 366 364 366 363 367 364 358 357 357 359 362 364 368 371 372 372 366 366 371 372 373 367 363 362 353 351 354 356 355 356 358 357 357 357 356 353 348 347 348 349 351 353 355 354 353 351 348 346 346 347 346 348 349 349 349 348 349 351 352 353 353 353 352 352 353 353 353 354 352 350 349 347 348 348 348 348 347 347 347 348 348 349 349 350 352 353 355 356 356 356 354
363 370 375 375 365 367 366 365 366 363 367 361 357 357 357 359 359 362 369 373 370 367 366 365 365 367 369 363 363 364 352 351 355 355 357 358 358 358 357 357 354 350 347 348 348 348 349 350 351 351 351 348 345 345 346 347 349 349 348 348 348 347 349 350 351 352 353 353 353 354 354 354 353 352 350 348 347 349 350 348 346 344 344 345 347 348 348 348 349 351 353 355 356 356 355 357 356
363 367 377 375 359 363 366 366 367 365 368 361 357 358 360 361 360 365 368 371 370 366 369 372 367 366 369 364 360 359 350 350 354 355 358 359 358 357 356 355 351 349 349 348 348 348 347 348 349 348 348 346 345 346 346 347 350 350 349 349 349 348 349 348 351 353 353 354 354 354 355 354 352 348 348 348 351 354 353 350 346 345 345 346 347 347 347 347 348 351 354 356 357 356 356 357 356
363 365 374 368 358 364 365 368 368 366 370 364 359 360 365 366 363 366 366 367 369 367 369 373 369 365 371 368 356 354 351 350 352 355 358 358 358 356 355 354 352 351 350 348 347 346 347 346 347 346 346 345 345 346 346 347 348 351 352 352 353 352 352 351 352 355 355 355 355 354 354 352 349 346 348 350 353 355 354 353 350 349 349 349 349 348 349 350 351 352 355 357 357 356 356 356 355
361 368 371 360 362 370 366 370 367 365 372 368 365 365 368 370 366 366 368 368 367 368 370 372 371 366 367 363 354 354 352 349 351 355 356 356 357 356 356 356 355 354 350 347 346 346 346 346 345 346 346 347 347 347 347 347 347 350 352 351 353 354 354 354 353 355 355 353 352 351 350 348 347 347 349 352 354 355 356 356 354 353 352 352 352 353 353 354 354 355 356 356 356 356 355 355 354
361 377 373 361 367 371 364 366 363 365 370 368 369 368 369 371 367 366 371 371 368 371 371 369 370 368 363 358 356 355 350 348 351 353 354 355 356 357 357 357 356 356 353 350 348 346 347 346 346 346 346 347 347 348 348 348 348 348 349 349 350 351 352 354 353 352 350 349 348 348 349 349 350 350 352 354 356 356 356 356 355 354 352 352 352 353 354 354 354 355 356 356 355 355 354 355 354
360 375 373 363 365 365 360 360 360 363 365 367 370 368 368 369 366 367 370 370 370 372 371 368 369 368 366 362 358 353 351 350 349 351 352 353 355 356 356 356 356 357 356 355 354 352 353 351 349 347 347 348 349 350 350 349 349 348 348 348 348 349 349 350 350 348 346 345 346 349 352 353 354 353 353 354 356 357 358 358 355 353 352 353 353 353 353 353 353 354 356 355 354 354 355 355 355
354 366 370 362 361 364 361 358 359 361 362 366 368 368 370 368 365 367 369 371 371 369 370 371 368 367 369 368 361 353 352 351 349 350 350 351 353 354 355 356 356 357 357 357 357 356 357 357 354 351 348 351 352 353 353 352 352 350 349 349 349 350 349 348 349 348 346 344 348 352 355 355 355 355 355 354 355 356 359 359 357 354 353 353 354 353 352 352 353 354 355 355 355 355 355 355 355
357 357 361 359 361 366 362 358 359 360 361 365 369 372 370 366 367 367 369 376 377 371 369 369 367 369 370 367 361 355 356 353 351 351 350 350 350 352 353 355 356 356 357 357 357 357 358 358 357 355 351 352 354 354 355 353 354 353 351 350 350 351 352 352 352 352 350 349 353 355 355 356 356 356 356 356 355 355 356 357 356 356 355 354 353 352 352 352 352 353 355 356 356 356 355 355 354
362 356 355 356 360 363 361 358 359 360 363 368 370 370 368 368 369 368 369 376 376 368 364 362 363 365 362 362 361 363 369 361 353 352 351 350 350 350 350 353 355 355 356 356 356 356 357 358 357 355 354 353 353 354 355 354 354 354 353 351 351 353 355 356 356 356 355 355 357 357 356 356 356 357 357 357 356 355 354 354 355 355 355 354 352 352 351 352 352 353 355 356 356 355 355 355 355
357 357 355 355 357 359 360 359 361 363 365 368 367 365 368 372 369 366 368 370 366 360 359 358 358 359 357 362 369 369 370 361 354 353 351 350 350 350 349 351 353 353 355 355 355 355 355 357 356 355 355 353 353 354 354 354 354 354 354 353 354 355 355 356 356 356 357 358 358 358 358 357 356 357 357 357 356 354 353 352 353 354 354 353 351 351 351 351 352 353 354 355 356 355 355 356 355
354 355 354 355 355 357 359 361 363 366 366 366 366 367 370 372 369 366 367 365 361 358 358 358 358 359 359 367 374 370 368 361 354 354 353 353 351 350 349 349 350 351 353 353 353 354 354 355 355 354 354 353 353 354 354 355 355 355 355 354 354 355 355 356 355 356 357 358 359 359 359 358 357 357 357 357 355 353 351 351 351 352 352 351 351 351 350 352 352 352 351 353 355 355 355 355 355
353 354 354 356 356 356 359 362 363 364 365 364 366 370 370 370 368 364 365 363 359 358 359 358 359 359 359 369 374 370 372 366 354 354 355 354 353 350 349 348 348 349 350 352 352 352 352 353 354 353 353 352 352 353 354 355 355 355 355 353 353 355 355 355 355 356 356 356 357 357 359 358 357 355 356 355 354 353 350 350 350 350 350 350 351 350 351 352 352 350 349 352 354 353 353 352 353
353 354 354 356 356 357 357 359 361 362 365 366 368 372 370 366 366 365 364 362 358 358 360 359 359 360 357 366 372 365 368 366 354 354 355 354 354 350 350 349 346 346 348 349 350 351 351 351 351 351 351 351 351 353 353 354 355 355 354 354 353 354 355 355 355 355 355 354 353 354 356 357 356 355 356 353 351 351 350 350 349 349 349 349 350 350 351 352 351 349 349 351 350 349 350 349 351
352 353 356 359 357 357 357 358 361 363 366 367 369 372 367 361 365 368 362 358 357 358 360 359 360 362 357 362 368 364 363 361 355 355 355 355 354 351 350 350 347 346 347 347 347 349 350 350 350 350 350 350 351 352 352 353 354 353 353 354 353 353 354 354 354 354 353 352 351 351 352 354 355 355 355 352 350 351 350 350 349 349 349 349 350 351 352 352 350 348 348 348 345 345 347 346 347
350 352 357 359 358 359 357 358 360 365 369 368 368 368 366 366 366 364 358 355 356 357 359 360 360 361 360 364 368 366 362 358 357 357 355 355 354 352 350 350 349 346 348 346 343 347 349 348 349 349 349 349 350 351 352 352 353 353 352 353 352 352 353 354 354 354 353 351 350 350 351 353 354 354 354 351 351 352 350 350 350 350 349 349 351 351 352 351 346 345 347 346 342 343 346 344 344
349 350 355 359 360 359 357 358 362 366 366 368 368 358 360 374 368 359 358 355 354 357 359 359 358 359 360 364 367 367 363 358 358 357 355 356 355 354 351 350 349 346 349 346 342 345 346 346 347 348 349 348 350 351 351 352 352 352 352 352 353 351 351 353 354 354 353 351 349 351 353 353 353 353 353 352 352 352 352 352 351 350 350 350 351 352 352 348 343 345 347 345 342 344 346 344 344
350 348 353 361 354 352 357 358 362 365 362 367 368 351 355 374 366 357 360 356 355 358 357 358 359 363 363 362 364 366 364 358 357 357 356 355 355 355 352 351 348 345 349 347 343 344 343 343 345 347 348 348 349 351 351 352 352 352 352 353 353 352 351 353 354 353 354 353 351 352 352 352 353 353 354 354 352 353 352 351 351 350 350 352 352 352 350 346 345 347 347 343 343 345 346 344 343
349 343 340 349 348 349 357 357 362 365 361 363 361 351 356 368 362 357 358 355 357 359 359 359 361 365 367 365 364 365 364 358 355 357 356 355 356 356 354 352 348 347 351 348 345 346 344 343 345 347 348 348 348 349 350 352 352 353 354 353 353 354 353 353 354 354 355 354 352 351 352 353 355 354 354 354 352 352 350 349 352 351 351 352 352 352 350 347 347 347 345 343 344 346 345 343 343
345 343 333 338 343 347 354 355 358 360 362 363 358 357 361 364 360 356 356 355 357 363 363 362 362 363 367 369 367 365 365 362 359 357 356 355 355 356 355 352 349 349 352 350 347 347 347 346 347 348 347 348 348 349 351 351 352 353 354 355 355 355 354 354 355 356 355 355 353 352 352 355 357 356 355 355 354 354 351 349 352 353 352 352 352 351 350 348 348 347 344 344 346 346 344 344 345
333 340 336 338 343 344 347 352 355 356 360 362 360 363 364 362 360 357 355 355 358 364 364 363 363 361 364 368 366 363 365 366 362 358 357 356 356 356 353 351 351 353 353 352 350 349 349 349 349 348 348 350 352 351 351 350 351 352 353 354 354 356 356 355 356 357 356 355 355 354 353 353 354 354 356 357 356 357 357 354 354 355 354 353 352 351 350 349 349 346 344 344 347 347 345 345 345
327 331 334 336 341 343 344 347 352 356 358 359 358 361 363 360 358 357 354 353 359 363 362 361 361 360 363 366 365 364 366 365 359 356 357 355 355 355 351 352 353 353 354 354 353 352 351 351 352 351 350 352 354 354 352 351 353 353 354 354 354 355 355 355 356 357 356 356 356 357 356 355 354 352 354 356 357 359 359 356 356 355 354 353 353 352 350 350 348 345 344 345 347 348 345 344 345
333 335 337 335 337 340 345 348 349 355 361 362 361 360 361 360 357 357 355 358 362 363 364 362 360 361 362 363 363 364 367 364 357 354 354 352 352 353 351 352 353 352 353 353 354 354 353 353 353 354 353 354 355 356 355 355 356 356 357 356 356 356 356 356 356 357 357 357 357 357 358 358 357 356 354 354 356 357 357 355 354 355 354 353 353 352 351 350 346 344 345 346 347 347 344 344 348
337 339 339 339 337 337 345 349 346 355 362 359 363 362 359 361 358 356 360 365 367 365 367 365 362 364 363 364 363 364 365 363 357 352 352 352 351 352 351 352 352 352 352 351 352 353 354 355 355 354 355 355 356 357 359 359 358 358 359 359 359 359 359 358 359 359 358 358 357 358 358 358 358 358 357 356 355 354 356 356 355 354 353 353 354 353 350 348 344 344 345 346 347 346 344 346 349
339 339 338 336 337 337 344 348 346 356 364 358 361 361 357 360 358 358 365 368 369 367 369 369 366 364 362 365 366 364 364 364 361 354 352 354 353 353 353 352 352 353 353 352 352 352 353 355 355 354 354 355 356 357 359 360 361 362 362 362 362 360 360 359 359 359 358 357 357 358 358 356 356 356 357 358 357 356 355 354 354 352 350 353 354 349 347 346 344 345 346 346 347 346 346 346 348
340 341 336 332 336 339 342 348 349 351 358 357 360 358 358 362 358 359 365 366 365 364 366 369 368 369 367 367 367 364 364 368 367 358 353 355 354 354 355 354 354 354 354 353 353 353 353 353 354 354 354 354 356 357 359 360 362 364 363 362 362 361 361 360 359 358 357 356 356 356 355 354 355 355 355 356 356 356 354 353 353 350 349 352 349 344 344 344 344 346 346 347 347 346 347 346 346
339 340 332 329 336 337 333 342 350 348 351 355 359 360 361 365 363 362 362 364 366 361 361 362 362 368 367 362 364 366 366 371 369 359 355 355 354 354 354 355 356 355 355 354 353 353 353 353 353 354 355 354 356 357 359 360 361 362 362 362 362 360 359 358 357 356 356 355 354 354 354 354 354 354 354 353 352 352 351 351 351 348 348 347 343 342 345 344 346 347 347 348 347 346 349 347 346
333 339 333 330 336 337 335 342 348 346 347 353 358 354 354 364 368 367 364 366 368 363 365 365 361 363 362 361 365 367 369 371 369 363 358 357 355 354 354 355 356 356 356 355 354 354 354 354 354 356 356 355 356 357 358 359 361 362 362 362 360 358 357 356 356 356 354 355 355 354 354 354 353 353 352 351 350 350 349 348 348 347 347 344 342 344 344 345 348 348 348 349 348 349 350 349 347
324 333 337 337 340 341 341 344 342 338 338 346 351 340 341 356 364 366 366 368 368 364 368 369 365 365 364 368 369 366 367 368 370 367 361 359 356 354 355 355 355 356 356 356 356 355 354 355 355 355 356 355 357 358 359 362 363 362 361 359 358 356 356 356 356 356 355 355 355 354 353 353 352 352 351 350 349 348 347 347 346 346 346 345 346 346 345 347 350 349 349 349 349 350 351 351 347
319 327 337 340 343 340 340 341 337 330 332 344 346 335 333 342 353 364 367 369 370 366 368 368 368 369 368 371 369 367 367 367 371 369 365 363 357 354 355 354 355 356 356 356 357 356 355 355 356 356 356 357 359 362 363 363 362 361 359 357 357 356 356 357 356 356 355 356 355 353 352 351 351 351 351 349 348 347 347 347 348 348 348 349 349 348 348 349 349 349 349 349 349 349 350 351 343
320 329 335 338 341 340 340 339 332 332 336 341 340 338 334 332 343 363 366 368 372 370 372 371 369 371 370 368 367 367 368 367 370 371 368 365 359 357 357 355 357 357 356 357 358 357 356 357 357 358 359 361 362 363 362 361 359 359 357 357 357 357 357 357 357 356 356 355 353 351 350 349 350 351 349 349 349 348 348 349 350 350 350 351 350 349 349 348 348 348 349 347 343 341 341 340 334
328 335 333 332 335 336 340 336 329 332 333 328 332 338 336 331 341 363 366 365 372 374 377 376 373 373 370 367 365 367 369 366 368 371 369 365 361 360 359 358 358 357 357 357 358 357 358 360 360 360 362 362 362 361 359 359 358 358 357 357 357 357 357 356 356 356 355 354 351 349 349 348 350 350 349 349 349 349 349 350 349 348 349 349 349 349 347 346 347 347 346 342 337 334 332 328 325
334 334 333 334 333 330 335 333 327 331 332 325 326 333 333 328 335 353 359 360 368 374 373 371 372 371 369 367 367 367 367 366 367 369 366 364 363 361 359 359 357 356 356 357 357 358 359 361 361 361 362 361 360 359 358 358 358 357 357 356 357 357 356 355 355 355 355 353 350 348 348 349 350 349 349 349 349 349 348 348 348 347 347 348 347 346 346 346 347 344 339 335 333 333 329 325 323
333 334 334 332 333 335 335 335 331 329 328 325 323 328 331 330 335 348 359 365 369 369 366 365 368 368 366 366 365 365 366 367 369 369 365 362 362 360 358 357 356 355 356 358 358 358 358 359 359 360 360 359 358 358 357 357 356 357 356 356 357 357 356 354 354 354 354 352 351 350 349 349 349 349 349 349 348 347 347 347 347 347 347 346 345 345 344 345 344 339 335 333 331 329 328 326 322
330 336 333 322 329 338 333 333 335 328 324 324 326 330 331 330 337 348 360 368 365 361 363 366 366 365 365 365 366 366 367 368 370 371 367 363 360 358 358 357 356 356 357 358 359 358 358 359 358 359 358 357 357 356 356 356 356 356 356 356 356 355 355 354 353 354 353 352 351 350 350 349 348 347 347 347 346 346 347 346 346 346 345 344 343 342 341 342 340 336 336 334 329 325 325 324 323
331 332 328 318 322 328 323 323 329 327 325 326 329 334 333 333 341 348 355 359 357 356 359 362 362 363 364 365 366 365 365 367 370 371 369 365 361 359 359 358 355 356 356 358 359 359 359 358 357 357 356 355 356 356 356 355 355 356 356 355 354 354 354 353 353 352 352 352 351 350 349 348 347 346 345 345 346 347 347 346 346 346 345 343 341 339 338 338 337 335 334 330 325 323 323 323 323
330 324 323 318 318 321 318 318 322 324 325 325 330 336 332 333 342 350 354 354 353 354 355 358 359 361 364 365 365 362 361 365 368 368 369 367 363 360 360 358 356 356 357 357 359 358 357 356 356 356 356 356 356 355 356 356 355 354 354 354 352 352 352 352 352 351 350 351 351 350 349 347 347 347 346 346 347 347 347 346 346 345 344 342 340 339 337 336 335 333 329 324 322 322 322 323 323
331 330 329 318 316 320 317 318 323 323 325 326 331 334 329 332 343 348 351 351 353 354 353 357 357 357 361 362 361 360 360 364 365 366 368 364 360 360 360 358 356 357 357 357 357 357 356 356 357 357 357 356 355 355 356 355 354 354 353 353 350 349 350 350 351 351 350 350 351 351 349 347 347 347 348 349 348 348 347 346 345 343 342 341 340 338 336 334 332 329 325 320 319 321 322 322 321
332 333 326 315 321 325 318 320 324 322 326 328 328 330 334 343 350 346 348 350 352 354 353 355 355 355 358 359 359 360 360 362 363 365 367 361 358 360 360 359 358 357 357 357 356 356 357 357 357 357 356 356 356 356 356 354 353 353 351 350 348 348 349 348 349 349 349 349 349 349 348 348 348 348 349 349 348 347 346 346 344 342 341 340 338 336 334 330 328 326 323 320 319 320 321 322 321
331 326 320 321 330 330 319 319 323 325 330 329 325 329 335 342 346 343 349 352 353 355 353 353 355 355 356 359 360 360 359 361 363 365 365 360 357 358 358 359 359 358 358 358 356 356 357 357 357 357 356 356 356 356 355 353 352 351 350 349 348 348 348 348 347 347 348 348 348 348 348 348 349 349 348 347 347 346 346 345 344 342 341 338 336 334 332 328 326 324 322 322 322 322 323 323 322
329 320 324 330 330 330 326 321 322 328 331 327 325 329 330 332 339 344 351 354 354 356 355 356 359 358 359 362 361 359 359 361 364 364 361 357 356 356 357 357 359 359 359 358 357 357 357 357 357 357 356 356 356 356 355 352 352 350 349 349 348 348 348 348 346 347 347 347 347 348 348 349 350 348 346 346 346 346 345 344 343 341 338 336 333 332 330 327 326 325 323 324 325 324 325 324 324
331 325 332 330 318 319 322 318 320 326 329 327 325 327 328 329 335 342 349 352 354 357 357 358 361 361 363 364 363 362 363 363 364 364 363 358 355 356 356 356 357 358 358 357 357 357 357 357 357 357 356 356 355 355 353 351 350 349 347 348 348 348 348 347 347 347 348 347 348 348 348 348 348 347 346 347 346 345 345 344 343 340 337 334 332 330 328 328 329 327 323 323 325 325 325 326 326
330 329 333 329 321 319 319 318 321 324 327 330 328 326 330 339 344 344 348 351 353 356 358 359 360 360 362 362 362 363 365 366 363 360 359 355 351 353 354 355 357 356 356 355 356 357 357 357 356 356 355 354 354 354 353 352 350 348 348 348 349 348 347 346 347 347 347 347 347 348 347 347 347 347 347 346 346 345 344 343 342 339 336 334 333 330 328 329 330 327 323 321 323 326 326 327 327
324 322 322 321 322 322 320 318 321 324 327 330 331 329 333 348 350 345 348 350 349 352 356 359 358 359 362 361 361 361 359 357 356 354 353 349 345 346 348 351 354 355 354 355 356 357 357 356 356 355 355 354 354 354 353 351 349 349 349 348 347 346 345 345 346 346 347 347 347 347 347 347 347 346 346 346 345 345 343 341 338 336 335 333 332 331 329 329 330 328 325 323 323 324 326 327 327
328 325 322 321 321 317 314 314 319 324 324 325 330 329 335 352 347 341 347 348 347 351 354 355 357 358 360 358 356 355 352 352 353 356 356 349 343 343 345 346 350 353 355 356 356 356 356 356 355 354 354 353 352 353 352 349 348 348 347 347 346 346 345 346 346 347 346 346 346 347 347 347 346 346 346 345 345 345 343 339 336 335 334 333 332 331 330 330 330 329 328 327 326 325 326 328 328
Wind_Speed
10 7 5 2 1 1 2 1 0 1 1 1 1 0 1 0 1 0 1 3 2 3 5 4 4 4 6 7 8 6 7 1 3 4 2 4 22 32 22 20 27 29 30 28 26 24 23 22 20 20 18 18 17 15 15 14 14 14 15 15 16 16 16 16 15 14 14 13 13 13 13 12 11 10 10 9 8 7 6 5 5 4 4 3 3 3 2 2 2 2 2 2 2 2 4 4 3
12 7 5 3 1 1 1 2 1 1 1 1 2 0 1 2 2 2 2 3 2 6 10 5 7 7 8 9 5 5 9 7 2 5 3 17 28 24 20 23 29 30 30 29 27 25 23 22 22 21 19 19 17 16 15 15 15 14 15 15 15 16 15 15 14 14 13 12 13 12 11 10 10 9 9 8 7 6 5 5 4 4 4 4 3 2 2 2 2 2 3 3 2 2 3 4 4
13 8 6 4 3 2 1 2 1 1 1 1 2 1 2 2 1 2 3 3 5 7 10 4 6 5 6 8 4 4 4 6 7 7 7 22 21 18 24 26 30 31 29 28 27 26 24 23 22 22 20 20 19 17 16 16 16 15 15 14 15 15 15 15 14 14 13 12 12 11 10 9 9 8 7 7 6 5 5 4 4 3 4 3 3 1 1 1 2 2 3 2 1 1 2 3 4
10 5 3 3 3 2 1 0 1 1 1 2 2 2 2 3 2 1 3 4 6 5 6 4 4 2 6 11 5 5 5 4 8 8 8 16 17 23 29 28 31 30 28 26 26 27 25 23 22 22 20 20 19 18 17 17 17 16 15 14 14 14 15 15 14 14 12 11 10 9 9 8 8 7 6 5 5 5 5 5 4 4 4 3 2 1 1 1 2 3 2 2 1 1 2 3 3
7 4 2 2 1 0 1 1 1 2 2 2 2 2 2 3 2 1 3 4 5 5 5 3 3 2 5 7 3 4 6 6 8 11 11 16 22 28 29 30 32 30 27 24 25 27 25 24 22 22 20 19 19 18 17 16 16 16 15 15 14 14 14 15 14 13 12 11 9 9 8 8 7 5 5 4 4 5 4 4 4 5 4 3 2 2 2 2 3 3 2 2 1 2 3 3 3
9 7 4 1 1 1 1 1 1 2 1 1 1 2 3 3 1 2 3 4 4 6 5 3 3 4 3 2 3 5 8 8 8 11 16 22 25 26 28 31 31 29 26 24 26 26 25 24 22 22 20 19 18 17 17 16 16 15 15 15 15 14 14 15 14 13 12 10 9 9 8 7 5 4 5 4 5 5 4 4 5 5 4 3 3 2 2 3 3 3 3 3 2 3 4 4 4
14 8 2 1 1 1 0 1 1 1 0 1 1 1 4 3 2 2 1 3 4 6 4 3 2 4 2 2 4 8 14 13 11 14 20 26 26 25 27 29 30 28 26 26 27 26 25 23 22 21 19 19 18 17 17 17 16 15 15 15 16 15 15 15 14 13 11 10 10 9 7 6 4 5 5 5 5 5 5 5 5 5 4 4 4 3 3 3 3 3 4 4 4 4 4 4 5
11 4 0 1 1 1 1 2 1 1 1 1 2 1 3 3 2 1 2 1 2 3 4 4 3 5 2 2 3 8 18 19 18 22 25 28 27 25 25 27 27 25 25 27 27 27 24 22 21 20 18 18 18 18 17 17 17 16 16 16 16 15 15 15 14 13 12 11 9 8 7 6 5 5 5 6 6 5 5 5 5 5 4 4 5 4 3 3 4 4 4 5 6 5 4 5 6
5 1 1 1 2 1 1 2 1 0 1 1 2 2 1 3 1 1 3 2 1 2 4 4 3 4 4 6 6 7 17 24 25 27 27 27 26 24 24 25 25 24 25 26 27 26 24 22 21 19 18 17 17 17 16 16 16 16 16 16 16 15 15 15 14 13 11 10 9 8 7 6 6 6 6 6 6 6 5 5 5 5 5 5 5 4 4 5 5 6 6 6 7 6 5 5 7
2 1 1 1 2 2 1 2 2 1 2 0 1 2 1 1 1 2 3 2 2 3 4 4 5 6 6 7 5 5 18 29 28 26 25 26 25 24 24 24 24 25 24 24 26 25 23 22 20 20 18 17 17 16 16 16 16 16 16 16 16 15 15 14 14 12 11 10 8 8 7 6 6 6 6 6 6 6 6 6 6 6 6 6 6 6 7 7 6 6 7 7 8 7 6 6 8
1 1 1 1 2 2 1 2 2 2 2 1 2 4 3 2 1 2 2 2 1 2 3 4 5 5 5 6 3 8 25 30 27 25 25 25 25 25 25 25 25 23 23 24 26 25 22 20 19 19 18 17 16 15 16 16 16 16 16 16 15 15 15 14 13 12 10 9 8 8 7 7 6 6 7 7 7 7 6 6 7 7 6 6 6 7 8 8 7 7 8 9 9 8 8 9 11
1 1 1 2 2 1 1 2 1 1 2 1 3 4 4 4 2 2 2 3 1 3 3 4 1 1 5 6 1 10 24 27 27 27 26 25 24 25 26 26 25 22 22 24 26 24 21 19 18 17 17 17 16 16 16 16 16 16 16 15 14 14 13 12 12 11 10 9 9 8 8 7 8 8 8 7 7 7 7 7 7 7 7 7 7 7 8 8 7 7 8 10 11 10 9 11 12
2 2 2 2 0 1 0 1 1 1 1 2 3 2 3 4 2 1 1 3 2 3 3 4 2 1 4 2 1 6 15 23 28 28 27 26 23 24 25 24 23 21 22 25 26 24 22 20 18 17 17 17 16 17 16 16 16 16 15 14 13 13 12 11 11 10 10 9 9 9 9 8 8 8 8 8 8 8 7 8 8 7 7 7 7 7 8 8 8 8 9 10 11 10 10 12 13
3 2 3 2 1 1 1 0 1 1 1 2 2 1 2 1 1 3 1 4 4 2 2 4 2 3 2 2 3 3 10 24 30 29 29 27 24 23 22 20 20 21 23 25 25 24 23 22 20 19 17 17 17 17 17 17 16 15 14 13 13 12 12 11 10 10 10 10 10 9 9 9 9 9 8 8 8 8 7 7 7 7 7 7 7 8 8 9 9 9 9 9 10 11 11 12 13
5 1 1 2 1 1 1 1 1 2 1 2 1 2 2 0 2 3 1 4 3 2 2 2 2 2 2 4 4 4 13 29 30 29 29 27 25 23 21 20 19 21 23 23 23 23 23 22 21 20 19 19 18 18 17 16 15 14 13 13 13 12 11 11 11 11 11 10 10 10 9 9 9 9 9 8 8 7 7 7 7 6 6 6 7 8 8 9 10 10 10 9 10 12 13 13 14
4 0 1 2 2 1 1 0 0 2 1 1 1 2 0 0 3 2 3 2 2 2 3 1 2 1 2 3 7 8 16 30 30 29 28 26 24 22 21 21 20 20 21 22 22 22 22 21 21 21 20 19 18 17 16 15 14 14 13 13 12 12 12 11 11 11 11 11 10 10 9 9 9 9 10 9 8 7 8 8 7 6 6 6 7 8 9 9 10 10 10 9 11 13 13 14 14
2 1 2 2 1 0 2 3 2 3 2 3 4 4 3 2 3 2 2 5 3 2 2 1 3 1 2 3 9 8 13 26 31 30 27 24 23 21 21 21 21 19 18 20 20 20 20 20 20 20 20 19 18 16 16 15 15 14 13 13 13 12 12 12 12 12 11 11 10 10 9 9 9 10 9 9 8 7 7 7 7 6 5 5 6 7 8 9 10 11 11 10 11 13 13 14 13
2 1 2 1 0 1 3 4 3 4 3 4 5 5 4 5 3 1 2 5 3 2 3 2 3 3 1 2 7 7 12 25 31 30 25 21 20 19 19 20 20 19 19 19 19 19 19 19 19 19 19 18 17 16 15 15 14 14 13 13 13 13 13 13 13 12 12 12 11 10 9 9 9 9 8 8 8 7 7 7 8 7 6 6 7 8 9 10 11 11 11 11 12 13 14 14 13
3 1 3 1 2 1 1 5 6 4 5 5 4 4 3 4 3 0 2 3 2 3 3 2 1 2 2 4 5 6 13 24 29 29 23 20 19 18 17 19 19 20 21 20 19 19 18 18 18 18 18 17 16 16 15 14 14 14 13 13 13 13 13 13 13 12 12 12 11 10 10 9 9 9 8 8 8 8 8 8 9 9 9 9 10 10 11 11 11 11 11 11 11 11 13 14 13
4 3 3 1 3 3 3 7 7 4 6 6 4 3 3 4 2 1 3 4 2 2 2 2 2 2 3 4 2 5 13 20 24 26 23 20 20 19 19 19 20 22 24 22 21 20 19 18 17 17 16 16 16 15 14 14 14 14 14 13 13 13 13 13 13 12 12 12 11 11 10 10 9 9 9 8 9 9 10 11 11 11 11 11 11 12 11 10 10 10 10 10 10 10 11 13 13
3 4 3 5 6 4 5 7 6 5 6 6 4 3 4 4 3 2 5 5 1 2 3 3 5 6 5 2 0 6 12 14 17 22 22 21 21 21 22 24 25 26 25 23 22 22 21 19 18 16 17 17 15 14 14 14 14 15 15 14 13 13 13 13 12 12 12 11 11 11 11 10 10 9 9 9 9 10 12 13 13 13 13 12 12 12 11 10 10 10 9 9 9 9 10 11 12
2 3 6 9 8 5 7 7 7 7 5 5 5 4 4 4 3 3 6 4 2 4 3 2 4 5 5 2 2 5 9 8 10 14 17 20 24 24 23 25 25 26 25 25 25 23 23 22 19 17 18 18 15 13 12 12 13 14 14 13 13 13 12 12 12 12 11 11 11 11 11 10 10 10 10 10 10 12 13 14 14 13 13 13 12 11 10 9 9 10 9 8 8 9 10 9 10
4 4 7 9 8 8 9 8 8 7 6 6 6 4 5 5 3 3 4 3 3 4 3 3 3 4 4 3 4 5 6 5 7 8 11 17 21 19 21 25 25 26 26 26 26 24 24 24 21 19 20 19 16 14 12 12 13 12 12 13 14 13 12 12 12 11 11 11 11 10 11 11 11 11 12 13 13 14 15 14 13 13 13 13 11 10 8 7 8 9 9 9 7 8 9 8 8
8 6 7 9 8 10 10 10 9 7 7 6 5 4 4 6 5 3 2 2 5 7 4 4 5 5 6 4 3 4 4 4 5 5 8 12 12 8 13 22 26 27 27 27 27 25 25 26 24 21 22 20 18 16 14 14 13 12 12 13 14 13 13 13 11 11 11 12 12 12 12 12 13 13 14 14 14 14 15 15 14 14 14 12 11 10 8 6 8 8 8 9 8 8 9 9 9
8 8 8 9 8 9 9 9 8 7 6 5 6 4 3 5 5 4 3 3 7 7 5 5 7 6 6 5 3 4 3 3 5 4 5 4 6 6 6 14 22 23 25 26 27 27 25 26 25 24 24 22 19 17 16 15 14 14 14 14 14 14 14 13 12 12 13 14 15 15 15 14 14 14 14 14 15 16 15 14 13 14 13 12 11 10 8 7 6 5 6 7 7 8 9 9 10
7 11 10 9 9 8 8 8 8 7 5 6 8 5 4 4 4 4 4 6 9 7 5 7 8 6 6 5 4 5 3 2 5 5 5 1 2 4 5 6 14 16 19 23 27 28 26 26 27 26 26 23 20 17 16 15 16 16 15 15 15 16 16 13 13 14 14 14 16 17 18 18 16 15 15 14 15 17 14 13 14 13 13 13 12 11 9 7 4 4 5 4 6 8 9 10 9
10 13 11 10 11 9 8 9 7 6 5 7 8 6 5 4 3 3 4 8 10 9 8 8 9 8 8 6 5 6 5 5 7 7 7 5 2 2 3 1 8 8 11 18 26 29 27 26 28 28 26 24 20 18 16 15 17 17 16 16 15 16 16 15 15 15 15 15 15 16 18 19 18 17 16 14 13 15 15 15 15 14 14 13 12 11 9 6 4 4 4 4 6 8 10 9 8
13 13 10 10 11 8 8 9 7 5 3 6 7 5 4 2 1 3 6 9 11 11 10 10 10 8 8 8 7 6 6 8 10 8 8 8 6 2 2 2 2 1 4 11 24 29 28 27 28 29 27 24 21 20 17 16 17 16 15 16 14 12 13 15 15 15 16 16 15 15 16 18 19 18 17 16 12 11 13 13 11 9 10 12 13 11 8 5 3 4 4 5 7 10 10 8 7
12 12 12 10 9 7 9 8 7 5 3 6 7 5 0 2 3 5 7 10 10 11 11 10 10 8 8 8 7 5 7 10 10 10 10 11 9 5 5 5 4 5 5 4 21 28 28 28 29 30 28 24 22 21 18 18 18 16 15 15 13 12 12 13 15 16 15 15 16 16 15 17 18 18 17 16 12 8 8 8 6 4 6 11 12 10 7 4 3 4 5 6 9 10 10 8 6
9 7 8 9 6 4 8 7 6 5 4 9 7 4 3 5 6 6 8 10 10 11 10 9 7 7 7 8 7 7 8 9 10 13 14 12 10 7 7 6 5 5 4 4 16 25 25 25 28 30 27 24 22 21 20 19 18 18 17 14 11 12 14 14 15 14 12 11 14 15 16 17 17 19 19 16 13 8 5 4 4 4 7 10 10 8 6 4 4 4 5 7 9 11 9 7 6
6 3 2 4 4 2 5 5 6 5 4 9 6 3 5 6 6 9 8 9 10 10 9 8 6 5 6 5 6 7 7 10 12 15 16 14 11 8 8 7 5 5 1 8 13 17 21 22 26 28 26 23 21 18 19 19 19 19 18 14 10 11 13 14 14 13 13 12 13 15 17 19 18 21 19 15 13 10 5 4 5 5 7 8 8 7 5 4 4 4 5 8 10 10 8 7 7
3 3 1 1 3 3 5 4 6 4 4 8 5 3 3 4 8 11 9 9 9 8 7 7 7 6 5 3 2 4 5 9 14 16 16 15 12 10 10 9 7 4 3 10 14 13 15 19 22 23 19 18 17 13 12 15 16 16 14 11 10 10 13 14 13 12 13 11 10 10 12 14 18 20 17 14 14 15 13 12 10 7 6 6 6 6 5 4 4 4 6 9 10 8 8 7 7
3 4 2 2 3 3 4 4 7 5 6 6 4 3 2 3 7 10 10 9 8 7 6 7 7 6 6 4 2 3 3 4 7 11 15 16 14 12 11 9 8 4 6 11 13 14 15 16 18 17 14 13 13 10 9 10 11 10 9 7 5 5 8 9 6 4 6 5 4 4 5 7 12 14 14 13 13 15 17 17 14 8 7 6 6 6 5 4 4 5 6 8 8 8 8 9 9
3 2 3 2 4 5 3 4 7 5 5 4 4 5 4 5 8 10 10 9 8 8 8 7 6 5 5 4 3 3 3 3 3 8 15 14 9 10 11 10 7 6 8 11 13 13 12 13 14 14 12 11 11 10 10 9 8 8 7 7 6 4 4 5 5 4 5 6 7 6 5 5 7 9 11 11 11 11 13 16 14 10 8 7 6 6 4 4 4 5 7 8 7 7 7 9 11
5 4 5 2 4 6 5 4 5 6 4 3 6 4 4 6 8 10 10 9 9 8 7 5 5 5 5 5 4 3 2 3 6 8 4 6 3 7 13 13 8 7 8 9 12 13 11 10 11 12 12 10 9 9 9 7 7 7 8 8 8 8 7 8 8 9 9 10 10 10 10 8 7 9 12 12 10 9 9 11 9 7 6 6 6 6 4 4 4 5 8 8 7 6 6 8 9
10 8 7 7 5 4 5 5 6 7 5 3 6 5 5 7 7 9 7 4 7 5 4 4 3 4 5 4 4 4 3 5 5 5 14 10 7 17 16 12 8 7 8 8 8 9 10 10 10 10 11 9 9 8 7 6 6 6 7 8 8 9 10 11 11 11 12 12 12 13 13 12 10 9 12 14 14 12 11 10 6 5 6 5 5 6 4 3 3 6 7 7 6 4 4 6 7
11 9 7 9 6 4 6 6 7 7 5 1 4 6 6 8 8 7 5 5 5 5 4 4 4 4 4 5 5 5 4 5 3 18 17 13 19 20 15 11 10 10 10 10 7 5 6 7 7 7 8 8 8 7 5 5 6 7 7 8 9 9 10 12 12 12 13 14 14 14 14 14 13 11 12 15 15 14 13 12 9 8 8 6 6 7 4 2 3 6 6 5 5 4 5 6 7
12 9 7 8 5 5 7 9 9 6 5 2 3 7 6 8 7 5 6 6 5 6 6 4 5 5 4 5 5 4 3 4 6 19 19 18 13 12 12 12 15 14 11 11 9 8 7 6 5 4 5 8 8 7 5 5 7 7 7 8 9 10 11 12 13 13 14 14 14 13 13 12 12 13 13 13 14 16 15 15 13 12 11 10 11 9 5 1 3 5 3 2 1 4 7 7 8
11 7 6 6 5 4 5 8 10 5 4 3 3 6 5 4 5 5 7 6 4 6 6 5 5 5 4 5 4 3 2 2 5 13 15 14 11 10 10 11 13 13 12 12 12 11 10 9 8 6 6 8 8 7 6 6 6 6 7 8 9 10 12 13 14 13 12 11 10 10 10 10 9 10 13 13 13 13 14 16 16 12 10 12 12 8 3 1 3 2 1 2 0 4 7 7 8
8 7 5 5 6 5 4 6 9 5 4 4 4 4 1 2 4 3 2 2 2 2 2 1 3 4 4 4 3 3 3 1 4 9 9 11 13 11 12 10 9 8 9 10 12 13 12 12 11 9 8 8 8 8 7 6 6 6 7 9 10 11 12 11 10 8 6 7 8 9 8 8 7 9 11 12 12 10 9 11 12 9 7 9 8 5 2 1 0 2 4 2 3 5 7 7 9
4 7 7 6 8 8 6 7 9 5 5 5 6 5 4 3 5 2 2 3 3 3 1 0 1 2 2 3 3 4 4 3 5 8 8 10 13 14 14 11 8 8 7 8 10 12 12 12 11 9 8 8 8 7 7 7 6 6 8 9 10 10 8 6 5 4 5 6 7 7 6 6 7 7 8 8 9 7 6 5 4 5 5 6 6 5 2 1 4 5 3 2 4 4 6 7 10
1 6 9 11 12 9 6 8 9 5 3 4 5 4 3 3 4 3 1 3 3 1 1 3 2 1 2 3 3 4 4 4 4 7 8 9 12 13 13 11 10 9 8 7 6 8 10 9 9 9 8 8 7 6 6 6 5 6 7 7 7 6 5 4 5 6 6 6 7 7 6 7 7 7 7 7 7 5 2 3 4 5 6 7 5 3 2 4 5 5 4 4 4 4 6 8 11
1 5 10 14 13 8 9 11 8 4 2 7 5 2 0 3 1 4 3 4 3 1 3 4 3 3 3 3 4 4 4 4 4 5 7 8 10 10 11 12 11 9 7 5 4 5 7 6 6 6 6 6 6 6 5 4 4 5 4 4 5 5 4 4 6 6 6 7 7 7 7 7 7 8 9 9 9 8 8 8 8 7 7 6 4 4 6 6 6 5 5 6 5 4 4 7 9
2 5 6 13 13 9 12 11 5 3 4 5 5 2 4 1 2 4 4 5 3 3 4 5 3 3 4 4 5 4 5 5 4 5 5 7 9 10 10 11 9 8 7 5 4 4 4 4 5 5 6 6 6 5 3 3 3 2 2 4 4 4 4 4 5 6 6 7 8 8 7 6 8 9 10 10 11 10 9 8 8 8 6 5 6 6 7 7 6 6 5 6 6 7 6 5 8
6 6 3 7 9 8 11 8 3 5 6 3 5 2 5 2 2 2 3 3 3 5 6 6 4 4 4 5 5 4 4 4 4 5 5 6 9 11 11 10 8 8 7 6 4 5 5 5 6 7 7 6 5 3 1 1 1 2 2 3 4 3 3 4 4 5 6 7 8 8 8 8 9 10 11 11 10 10 10 10 10 9 9 8 7 6 7 7 6 6 7 7 8 10 9 9 10
7 3 2 3 2 4 8 7 5 6 6 4 7 2 4 1 2 3 2 2 4 6 6 6 5 5 5 4 4 3 2 3 4 4 5 6 8 11 11 10 9 8 8 6 5 5 6 6 6 7 6 5 4 3 2 1 2 2 1 2 3 4 3 3 4 5 6 7 8 9 9 10 10 11 12 12 12 12 13 13 12 11 10 9 8 7 7 7 7 8 10 10 9 8 8 9 10
4 2 5 6 6 5 6 4 4 6 3 4 5 2 4 1 3 4 4 4 6 6 4 4 5 5 4 4 3 3 3 3 3 3 5 7 9 11 12 11 10 9 9 7 6 6 6 5 5 5 5 5 5 4 3 3 2 2 2 3 4 5 5 4 5 5 6 7 8 9 10 10 11 12 13 13 14 14 14 14 14 13 13 12 11 9 8 8 10 11 11 9 8 7 6 6 8
1 3 5 4 5 5 5 4 4 5 1 4 2 3 4 2 3 6 5 5 7 8 6 6 8 6 4 4 3 3 3 2 3 4 4 6 8 9 10 10 9 9 9 8 6 5 5 5 5 6 6 7 6 4 4 4 4 4 5 6 6 6 5 5 6 6 6 7 8 9 10 10 11 12 13 14 14 15 14 14 14 14 14 13 12 12 12 13 14 11 9 7 7 7 6 6 7
3 3 6 4 2 4 3 2 2 3 2 3 5 5 3 0 4 5 5 5 6 7 7 9 10 7 5 4 3 3 2 2 3 4 4 5 5 6 8 9 9 9 8 6 6 6 6 6 7 7 6 6 5 5 5 4 5 6 7 7 7 6 5 5 6 6 6 7 8 9 10 11 11 12 13 13 14 14 13 12 12 12 12 12 12 13 14 14 12 10 8 8 8 7 7 7 8
5 2 4 4 1 2 2 0 1 2 1 1 2 3 2 2 4 3 5 6 6 7 8 9 10 9 7 5 4 3 2 2 3 3 4 4 4 6 8 9 10 10 8 7 7 7 8 8 7 6 5 4 5 5 5 4 5 5 5 5 6 5 4 3 3 5 6 7 9 9 10 10 11 11 12 12 12 11 10 10 10 10 10 10 10 12 13 12 10 10 10 10 8 8 7 8 9
2 3 5 4 3 4 3 3 3 4 2 1 3 3 3 3 3 4 5 6 7 7 6 8 8 8 7 5 4 4 3 2 2 3 3 4 6 9 9 9 10 10 10 9 10 10 9 8 7 6 5 5 6 6 5 5 5 5 4 5 6 6 5 3 4 5 6 8 9 9 8 9 10 10 9 8 7 7 8 9 9 10 9 9 9 11 12 11 11 11 12 10 9 7 8 9 10
4 1 4 1 4 4 2 2 5 6 4 1 3 1 3 3 1 2 4 7 7 6 7 8 7 6 6 5 4 4 4 3 2 3 3 4 7 10 10 10 11 11 11 11 12 11 9 8 7 7 7 7 7 6 5 6 6 6 6 6 6 6 5 5 6 7 6 7 8 8 9 9 9 8 6 5 5 7 8 9 10 10 8 9 10 11 11 11 12 12 12 11 10 9 9 11 11
2 2 0 5 5 6 4 3 3 6 5 1 1 1 1 2 2 1 4 7 6 7 9 8 7 7 6 5 5 4 4 4 3 3 3 4 7 9 10 11 12 12 12 13 12 10 9 9 9 8 8 7 7 6 6 8 7 6 5 4 3 3 3 5 7 8 8 8 7 8 8 7 6 6 5 5 6 7 9 9 9 8 7 9 11 10 10 11 12 13 13 13 12 10 10 11 10
2 2 5 3 2 4 5 4 3 4 4 1 1 3 3 2 1 3 3 6 5 6 9 7 6 7 6 4 4 4 4 4 4 4 4 5 7 6 7 9 11 13 14 14 13 12 11 9 9 10 9 8 8 7 8 9 7 5 4 4 4 2 1 4 8 9 9 8 7 7 7 5 5 5 6 6 6 8 10 9 9 9 9 10 10 10 10 11 12 13 12 11 11 9 8 9 10
4 5 3 2 2 2 2 3 4 3 3 1 1 0 2 3 3 4 6 6 5 6 7 7 7 7 6 5 5 5 6 5 5 5 4 5 7 8 8 6 8 14 15 13 12 12 11 10 8 10 10 9 9 9 10 9 7 7 6 5 2 1 2 5 10 9 7 7 6 6 5 4 5 6 5 5 6 8 10 8 7 9 10 11 11 11 11 11 12 12 11 9 10 10 9 8 10
2 3 3 2 3 3 2 3 4 5 4 3 0 2 2 4 5 8 10 8 8 8 5 6 7 6 6 6 6 6 6 5 5 5 5 6 6 2 5 6 11 15 13 12 12 10 10 10 9 8 9 9 9 10 9 8 8 7 5 2 3 2 10 14 13 10 9 8 7 6 5 5 6 5 4 4 6 9 9 7 7 9 10 10 10 9 9 8 10 12 12 9 7 10 11 10 10
2 2 3 2 1 0 1 1 2 5 5 3 3 1 5 5 4 8 11 9 9 9 7 6 6 7 7 7 7 6 6 7 7 7 7 7 11 12 10 5 7 14 12 11 11 11 10 10 9 9 8 8 9 9 8 8 8 6 4 4 6 11 15 16 13 12 12 11 9 8 7 6 6 5 4 6 8 9 10 8 8 9 9 8 9 9 7 6 7 10 11 10 6 7 10 9 10
5 4 4 3 1 1 1 2 2 3 5 4 5 3 6 5 3 7 8 8 8 9 9 7 6 7 7 6 7 7 7 7 6 7 7 7 8 8 2 6 4 4 11 13 11 10 11 11 10 9 8 8 9 11 11 9 8 8 10 14 15 15 14 12 11 11 10 10 9 8 8 7 6 6 6 7 8 9 9 9 9 9 8 8 8 8 7 5 6 7 8 9 7 6 7 7 9
Wind_Direction
189 175 202 212 347 306 39 7 329 17 67 4 305 270 319 5 279 225 287 292 350 338 322 351 29 51 99 115 137 103 47 53 174 146 192 161 147 152 157 164 165 161 158 156 156 157 155 155 156 155 153 152 150 146 143 141 140 141 143 146 146 146 145 142 141 143 144 145 147 145 142 141 138 136 133 130 132 137 142 150 158 166 179 192 207 219 229 240 243 248 250 228 231 239 230 224 220
184 182 205 182 50 26 27 315 58 55 81 14 297 204 2 24 337 313 347 343 337 304 305 332 58 63 103 125 141 76 40 8 91 118 95 133 138 149 161 167 165 162 159 157 158 158 157 159 158 157 156 155 152 149 148 146 145 145 147 149 149 149 148 145 145 147 149 150 149 145 144 142 141 141 137 137 142 149 155 164 175 189 205 213 224 241 229 234 245 240 241 228 228 238 228 225 228
190 201 209 149 54 39 83 337 78 118 103 133 266 239 99 83 284 316 341 313 288 288 291 310 56 52 85 86 39 52 68 15 73 89 109 136 136 151 164 165 164 162 158 158 160 160 160 162 161 159 158 157 156 154 154 153 152 153 153 154 154 152 150 149 149 152 154 154 151 147 146 144 146 144 141 145 154 166 174 185 196 207 222 230 235 246 212 227 239 226 238 241 230 237 229 235 236
185 197 204 126 53 13 103 19 207 167 145 181 240 255 153 147 186 290 289 285 293 310 305 319 53 19 75 88 77 69 99 71 84 97 126 144 145 154 160 161 162 161 157 159 163 162 163 164 162 161 161 159 158 158 158 158 157 158 157 158 159 156 153 152 155 158 160 160 157 154 152 154 153 147 152 158 170 187 194 204 212 219 234 248 255 272 275 269 255 239 251 269 295 292 260 255 252
168 177 171 141 101 325 193 167 209 199 188 179 185 244 186 146 144 250 281 295 308 333 320 320 75 93 82 96 124 92 110 112 105 111 123 137 145 152 156 159 161 160 158 162 165 165 164 165 164 163 163 160 159 159 159 159 158 159 159 160 161 159 157 157 162 164 164 165 163 163 163 164 160 156 171 173 186 209 212 217 223 228 239 263 286 296 291 281 273 259 261 302 305 286 284 273 263
165 167 169 162 151 214 235 173 225 217 191 213 189 195 164 138 165 225 292 305 327 334 317 336 66 95 72 37 76 128 145 125 116 121 125 135 145 151 155 158 160 160 160 164 167 167 165 166 167 166 164 162 162 160 159 160 161 162 162 162 161 161 162 165 168 168 168 168 169 173 175 173 169 176 187 187 200 222 225 227 231 234 244 271 291 293 288 283 285 281 287 313 298 279 285 275 261
169 153 154 116 116 234 294 273 260 300 49 276 293 159 157 140 203 199 326 313 354 340 331 3 29 83 58 326 69 124 136 125 126 130 133 139 145 151 156 160 159 159 163 165 168 168 165 168 168 168 167 165 165 163 162 162 163 163 163 164 163 164 166 169 171 172 173 175 179 182 186 184 186 197 196 199 212 226 229 232 237 244 257 271 282 278 276 287 302 309 306 306 301 288 277 277 279
175 147 176 120 41 352 340 324 17 2 6 344 331 350 161 142 196 169 55 340 14 331 339 356 5 72 35 353 65 109 118 119 125 130 136 141 146 154 160 161 158 160 164 167 169 167 165 169 170 171 170 168 167 165 164 164 164 164 164 164 165 168 169 172 175 178 182 184 189 192 197 198 204 209 204 211 222 229 232 240 245 255 266 267 276 272 268 301 319 320 311 306 308 299 284 293 296
168 157 242 110 56 18 313 326 27 185 43 358 331 6 145 132 166 122 83 25 358 333 353 338 346 83 73 61 76 91 108 121 127 132 140 146 152 157 160 159 160 163 169 172 171 168 166 171 172 172 173 171 169 167 167 167 166 165 166 168 170 173 174 177 181 185 192 194 198 202 209 212 213 215 216 225 232 235 241 249 251 256 261 262 274 277 281 305 318 319 317 314 314 306 296 298 294
117 303 249 56 68 25 334 322 330 37 56 302 331 356 332 95 56 67 92 57 356 355 5 2 42 89 97 81 81 97 121 130 131 135 144 151 153 153 156 162 167 169 173 177 174 171 169 173 175 174 175 174 173 172 171 170 169 169 170 173 175 178 180 183 188 193 199 203 207 212 220 220 221 225 229 238 239 244 248 252 256 257 259 262 272 275 280 295 306 312 315 312 311 309 304 297 292
80 281 201 41 49 32 4 330 330 22 350 280 18 350 334 357 72 50 68 93 23 23 355 4 56 76 87 91 82 128 135 135 136 141 149 152 150 152 158 167 173 174 175 177 177 175 171 173 177 175 175 175 176 176 175 175 174 174 175 177 180 183 187 192 197 202 206 211 216 222 229 228 234 239 241 246 247 254 256 256 257 259 263 266 269 272 279 291 300 306 312 311 308 304 300 292 290
253 260 99 58 51 52 292 319 9 66 287 318 30 355 346 344 3 71 93 123 62 53 20 1 63 68 83 97 101 141 139 137 142 147 151 148 145 152 159 166 173 176 175 175 176 175 172 173 177 176 176 175 177 178 178 178 178 179 180 183 188 192 197 202 206 210 215 221 226 231 236 241 244 247 249 251 256 260 258 258 258 260 265 268 271 276 286 296 300 305 308 309 305 301 298 295 293
244 215 101 60 158 129 252 325 4 59 10 21 45 344 329 331 338 342 157 124 64 69 36 343 320 69 95 121 103 143 144 141 146 149 149 143 141 152 159 165 172 176 174 173 175 175 174 174 177 178 177 178 178 179 179 180 183 185 187 191 195 202 207 211 216 221 226 231 235 240 243 249 251 252 254 256 262 260 257 259 259 262 264 268 275 280 290 297 302 305 302 303 303 304 302 299 298
212 233 125 101 203 121 69 282 325 50 26 353 73 247 264 241 272 292 235 90 46 46 347 321 345 57 105 152 117 152 150 142 145 147 147 143 144 153 159 165 171 174 173 174 176 176 176 175 179 180 179 181 180 179 181 184 188 191 194 198 201 207 212 218 225 229 235 239 243 248 250 255 255 256 257 259 260 255 256 260 261 263 263 269 277 282 290 295 302 304 304 305 304 306 303 299 303
189 279 128 115 71 46 2 203 287 88 75 317 84 238 242 185 234 280 296 85 56 308 326 340 18 44 160 149 152 193 148 142 146 146 145 144 146 151 156 162 165 168 172 176 177 178 178 178 180 180 181 182 181 182 185 189 193 198 201 204 208 212 217 222 228 234 239 243 246 248 252 256 257 257 257 256 254 256 261 264 265 265 268 273 277 285 292 294 298 302 307 307 299 303 306 304 308
171 146 66 64 72 59 304 211 252 127 152 182 148 253 109 338 226 232 305 60 93 335 358 339 356 18 162 148 170 173 146 145 147 145 142 141 140 142 146 152 158 166 173 177 178 180 180 181 183 182 183 183 185 188 191 196 199 204 208 211 216 217 222 227 231 236 239 242 245 246 251 254 257 256 253 250 249 259 264 265 268 267 272 278 282 288 293 295 296 299 304 302 295 301 307 307 312
116 119 46 38 66 176 205 195 205 157 169 174 169 214 168 150 201 213 356 55 76 10 4 274 332 316 198 187 168 151 142 147 144 140 138 137 136 136 140 146 154 164 175 180 181 181 182 185 188 187 188 188 191 195 198 203 203 208 214 218 222 224 228 230 233 236 237 240 241 244 248 250 253 253 249 247 249 256 259 264 269 270 277 285 290 291 293 296 297 299 301 298 296 302 308 312 316
118 154 90 78 192 234 207 184 175 139 157 194 181 204 181 138 156 208 49 52 52 46 15 351 335 308 284 171 150 128 137 142 138 136 137 138 139 141 145 150 156 164 174 184 187 185 186 189 192 194 195 196 198 200 203 206 208 211 217 221 224 228 230 233 236 236 238 239 238 241 245 248 251 252 250 250 253 257 260 265 270 272 276 281 288 289 293 300 301 299 299 299 301 303 309 316 315
158 129 93 173 203 203 196 144 153 154 163 182 187 202 175 135 144 158 102 70 51 83 37 20 26 330 47 106 122 130 135 132 132 137 140 141 145 148 151 157 161 167 174 184 188 189 192 193 196 199 199 202 204 206 208 210 212 216 219 222 226 229 232 235 237 239 242 243 241 241 244 248 251 254 253 251 257 264 272 275 274 275 275 279 286 288 291 298 300 297 298 301 303 304 309 316 314
166 115 80 226 170 138 134 149 169 180 157 157 178 187 140 139 150 118 119 98 52 118 141 132 152 173 132 96 97 141 131 128 131 137 143 145 150 155 157 164 169 173 179 183 187 191 195 193 195 199 200 202 205 209 213 214 215 218 221 224 227 230 234 236 240 245 247 246 243 241 244 249 253 259 254 249 255 262 270 276 278 278 278 281 285 287 288 293 294 293 296 298 299 304 309 317 317
149 128 147 170 151 136 160 171 171 160 150 149 156 142 128 138 129 122 122 101 20 239 217 193 176 165 148 96 130 140 123 129 133 135 145 149 156 164 167 174 176 178 182 184 187 193 198 197 193 196 198 198 202 208 213 217 219 222 224 225 227 230 235 239 244 249 249 245 241 240 244 249 255 260 255 250 254 257 260 263 268 272 275 280 282 284 283 284 288 289 292 294 298 307 315 323 325
78 116 149 156 153 145 162 166 154 155 152 142 143 136 138 128 109 142 132 123 221 213 211 206 173 154 148 134 144 123 107 134 145 139 150 153 161 171 174 177 178 179 181 184 189 195 202 201 198 196 196 197 202 208 212 219 222 225 225 224 226 229 234 239 242 245 244 239 239 242 246 250 253 254 253 253 256 257 257 258 263 268 274 278 278 279 276 276 283 287 285 285 296 313 323 331 332
96 128 147 155 157 147 155 161 159 162 154 154 159 151 140 120 127 174 153 173 197 157 147 152 142 133 142 124 119 117 101 148 164 149 170 166 164 173 173 174 177 180 182 186 190 195 202 202 201 200 199 202 204 207 215 220 222 224 225 224 225 226 230 235 238 237 234 233 237 242 246 250 251 252 254 256 258 259 260 262 263 267 274 275 273 268 263 268 278 284 281 276 291 312 321 326 327
122 142 160 159 153 149 155 163 167 167 163 166 151 131 138 138 140 148 166 175 127 125 141 143 130 127 137 108 99 138 118 164 174 159 190 174 159 165 171 176 179 182 185 188 191 196 201 200 203 204 204 207 205 206 214 219 221 221 222 223 226 230 230 234 239 238 237 237 238 240 245 249 249 251 254 256 260 260 261 264 262 262 267 267 263 253 245 260 272 279 282 279 292 306 311 314 317
133 145 163 158 146 148 150 155 164 166 163 146 128 132 169 166 138 128 171 137 119 134 151 146 137 133 140 122 135 166 137 181 180 176 207 159 130 129 146 186 188 187 189 190 192 198 201 199 202 208 208 207 204 206 213 217 222 223 224 225 230 234 231 236 244 246 248 247 248 245 244 245 246 247 252 259 260 259 261 264 261 258 258 255 249 239 234 250 263 285 297 290 292 300 307 311 313
151 149 161 157 142 143 142 150 162 163 159 138 136 152 191 185 126 125 177 145 136 150 152 156 150 146 156 150 166 172 159 216 185 191 239 315 87 113 93 183 185 186 199 197 195 198 200 199 202 207 207 205 201 204 210 215 220 222 225 227 232 236 233 237 240 243 248 253 256 254 250 246 246 246 250 261 260 255 260 265 260 253 252 249 238 227 228 238 257 315 322 304 298 305 312 313 313
150 149 157 152 142 143 148 157 163 152 154 154 148 159 183 187 118 135 190 157 153 161 162 168 160 163 171 165 181 174 168 211 191 195 241 268 281 131 73 163 161 172 212 209 204 201 200 200 201 204 204 202 199 202 208 214 218 221 226 229 234 237 235 238 239 241 245 251 259 263 259 252 249 249 251 259 258 255 263 272 269 260 254 242 221 216 221 228 259 317 321 315 317 318 316 313 310
145 144 142 141 138 141 153 156 158 144 157 171 144 130 157 167 162 198 189 167 164 165 167 173 169 178 178 166 180 174 171 199 191 196 231 249 263 220 206 272 183 229 275 223 214 206 202 201 200 202 202 200 198 201 208 214 217 220 225 228 233 238 238 240 239 244 251 253 258 264 264 259 251 247 248 252 254 260 267 270 265 257 239 216 204 208 217 226 269 313 312 314 325 326 318 310 306
144 139 130 137 137 144 164 160 167 160 150 168 127 77 50 207 221 211 176 169 169 162 170 180 177 184 179 164 170 176 178 184 183 197 221 238 254 242 226 255 257 290 342 230 214 207 203 201 199 201 201 200 200 203 208 213 216 218 218 222 232 237 235 238 240 249 260 251 249 258 266 268 252 234 236 243 245 253 253 239 225 210 195 192 194 204 213 233 285 312 304 312 326 326 316 306 301
141 140 124 131 121 142 177 167 172 155 135 166 130 60 264 243 220 196 173 172 165 164 177 180 176 179 173 166 170 176 178 177 181 196 211 230 246 247 240 248 247 271 358 132 193 201 204 200 197 199 199 201 203 207 212 213 215 213 212 220 234 233 227 233 241 252 264 248 241 252 263 270 253 227 225 232 234 238 235 218 201 184 179 182 190 201 214 249 297 308 304 319 330 325 315 307 303
131 112 79 117 105 156 194 172 160 138 151 173 125 83 234 243 208 187 185 181 167 171 179 171 164 161 169 183 175 174 181 181 187 194 203 217 229 234 237 236 228 251 24 116 150 183 199 196 194 194 195 202 203 208 217 216 215 212 215 230 243 236 228 231 242 252 263 263 260 265 270 268 248 227 225 232 233 234 245 266 246 210 190 190 197 208 229 267 299 308 312 328 334 329 320 313 312
143 107 348 345 95 169 203 185 175 157 166 176 131 105 232 238 195 184 187 187 174 171 175 174 168 155 164 189 189 198 202 190 190 194 202 212 220 226 232 228 218 229 145 129 125 136 164 178 183 184 186 196 195 197 205 204 207 209 217 235 245 246 241 239 250 258 260 266 275 287 287 260 236 226 232 242 239 236 240 246 246 232 212 209 214 227 249 273 299 309 322 335 336 335 330 324 328
200 135 173 211 109 159 199 195 207 187 150 179 178 144 199 228 193 188 190 188 172 159 174 184 177 168 169 171 203 227 244 238 209 196 201 211 218 225 229 220 205 177 130 141 140 131 133 148 166 173 176 184 187 190 193 194 200 202 209 218 227 252 247 244 260 259 243 260 292 317 311 253 234 231 234 238 238 239 238 234 235 236 235 232 232 239 251 271 294 306 329 340 338 337 332 331 340
216 114 129 179 144 156 190 195 211 194 149 172 171 153 194 200 182 189 195 185 159 157 180 188 180 177 177 184 195 198 239 269 258 223 211 208 220 227 217 202 179 143 126 136 149 152 143 144 160 172 177 181 186 195 203 211 221 227 232 235 242 264 262 261 278 284 280 293 304 308 302 276 261 252 245 241 239 241 235 225 220 224 233 233 233 236 239 264 286 310 335 342 336 330 330 338 343
173 169 125 156 171 163 186 186 191 186 156 127 130 155 203 179 176 194 199 182 160 167 179 176 180 180 182 198 198 191 211 225 248 251 198 93 50 223 204 192 173 148 148 145 148 154 158 163 170 176 181 185 186 189 196 209 230 245 254 255 255 261 269 274 278 285 290 293 299 304 306 305 294 273 260 253 246 241 234 220 204 204 218 219 225 229 230 257 291 324 337 338 327 321 329 343 340
159 168 144 160 176 175 193 180 175 165 125 100 135 155 177 167 186 196 189 157 140 155 165 148 166 187 190 200 205 201 193 223 251 49 76 92 204 217 206 187 176 178 183 178 159 154 162 169 177 183 188 194 196 191 189 204 225 244 257 264 266 267 270 274 278 284 289 293 299 305 308 311 307 287 266 260 259 255 251 249 229 185 184 197 222 229 227 246 307 331 334 329 318 321 338 346 341
139 148 147 165 163 175 190 162 166 153 105 125 161 138 162 181 199 189 142 102 119 153 177 167 172 192 202 202 209 207 203 234 94 86 110 186 213 217 218 205 207 219 215 211 205 192 183 177 183 197 204 212 219 213 204 219 239 251 260 268 273 276 278 281 285 291 296 300 304 303 303 305 305 297 279 268 268 265 261 261 250 218 207 211 212 203 196 227 315 326 328 320 316 340 350 351 346
130 148 151 165 169 185 183 156 167 154 101 202 165 122 160 188 195 178 124 125 162 183 187 191 193 195 203 207 211 202 211 257 93 111 152 188 191 203 216 217 224 232 233 231 230 228 225 221 215 221 231 234 238 234 230 246 257 259 266 275 282 289 293 295 298 301 303 303 302 301 303 308 311 305 294 284 280 277 273 268 261 249 234 214 198 183 166 151 319 318 318 297 307 354 352 354 352
130 150 143 163 183 173 166 157 170 155 103 198 177 125 169 191 168 163 151 161 185 193 197 196 192 197 202 207 213 196 204 277 103 129 159 164 156 185 201 208 220 229 239 240 240 242 244 249 251 256 259 250 245 242 243 252 259 265 275 287 295 299 301 303 304 306 310 309 306 308 313 320 320 309 301 297 294 290 281 273 267 260 230 200 187 173 146 28 327 299 203 185 86 16 3 5 4
134 153 139 172 190 163 165 176 175 153 105 162 148 107 254 355 70 113 158 165 133 160 225 191 176 208 213 199 191 188 201 227 118 128 144 150 154 184 206 208 205 211 231 235 237 242 244 248 252 255 259 255 248 244 245 252 265 277 287 297 302 303 303 305 307 315 327 324 320 320 322 328 322 310 307 307 311 307 291 280 266 253 234 207 181 147 113 17 229 175 156 134 47 24 1 359 6
154 170 157 173 193 188 178 171 165 128 67 120 119 66 333 356 71 74 6 43 70 80 62 82 197 224 172 160 181 193 198 191 144 134 144 152 153 174 198 204 199 203 215 222 230 234 236 239 241 250 259 254 248 242 241 251 266 282 295 303 304 306 309 312 327 359 2 346 339 337 337 341 336 334 338 341 340 321 295 294 247 219 210 191 169 135 113 136 155 152 138 88 51 22 346 342 353
210 197 180 172 187 195 162 148 148 112 51 178 149 79 311 314 94 150 287 77 86 64 187 216 224 198 151 160 203 212 205 201 166 148 156 159 157 166 180 190 196 204 205 209 225 229 231 236 239 250 255 244 238 234 234 243 263 286 302 309 312 320 335 6 11 5 5 3 1 360 1 0 360 10 20 28 25 15 34 77 129 146 123 127 134 119 135 152 149 139 116 83 57 11 337 328 340
1 222 183 168 183 184 149 156 153 125 162 202 198 99 235 287 117 193 211 124 142 219 233 228 198 184 183 183 214 215 208 215 183 160 160 155 157 163 176 189 193 197 198 198 215 217 217 226 232 239 236 223 217 217 230 245 271 295 320 339 349 354 4 26 18 5 5 9 13 14 14 17 28 40 45 59 67 74 90 97 109 115 100 96 103 121 138 141 135 123 96 69 47 21 346 322 345
274 250 156 156 186 184 157 168 161 122 132 167 216 139 107 243 220 197 180 121 151 239 250 247 219 196 195 198 220 217 206 209 180 163 161 156 164 170 178 187 188 188 186 184 191 189 193 205 201 193 188 192 197 208 243 271 292 324 12 14 12 14 14 18 13 16 19 19 27 28 27 40 55 61 63 74 85 89 93 92 93 96 93 96 109 121 128 127 122 107 82 68 67 65 54 29 30
252 255 115 144 182 173 154 157 124 109 107 136 225 156 90 300 288 154 147 127 190 231 233 235 225 210 207 205 211 208 205 200 178 164 159 164 170 167 164 165 163 165 167 169 176 177 181 183 179 180 180 184 195 207 255 287 12 24 19 20 32 37 31 29 32 43 42 41 47 47 54 73 79 82 82 81 85 89 91 93 96 96 98 100 103 110 114 112 104 94 90 92 89 79 69 60 55
245 252 29 53 75 112 125 129 119 100 96 170 219 169 102 301 280 171 170 203 213 221 224 219 213 206 200 196 181 164 162 165 164 154 151 164 162 152 149 147 144 151 157 152 147 165 181 182 179 185 185 179 175 161 135 121 82 51 37 54 72 73 64 71 81 75 61 58 64 66 73 84 87 89 90 88 91 95 95 95 95 93 93 93 96 103 107 108 105 102 103 100 91 81 70 62 59
235 34 36 19 10 38 86 108 111 83 53 236 232 193 124 135 260 208 197 217 196 187 198 193 192 193 180 176 169 160 161 149 135 127 137 147 144 142 141 135 129 135 142 140 136 151 163 164 167 171 166 155 145 137 126 112 97 92 106 108 103 95 90 91 90 83 75 72 76 79 80 84 88 90 93 95 96 97 95 92 90 89 88 88 93 98 102 116 122 116 108 96 81 73 65 61 60
250 63 59 30 349 21 45 12 51 87 262 246 183 93 93 106 246 232 216 209 179 164 169 166 168 174 168 169 170 164 166 140 114 113 123 128 131 136 134 126 123 127 135 137 137 141 144 145 147 147 145 138 128 124 115 104 104 114 120 120 111 103 96 86 81 78 80 86 91 93 92 91 94 98 100 101 100 98 94 91 91 91 88 85 92 103 112 123 127 119 107 88 72 71 72 69 63
20 60 66 64 341 14 43 1 50 122 200 215 150 111 79 270 253 239 204 186 173 163 164 161 159 161 164 169 167 154 148 126 116 120 123 125 134 136 130 127 129 131 136 142 142 140 139 141 138 134 131 123 120 122 119 110 105 105 109 113 112 112 105 89 86 87 89 97 102 102 102 103 104 106 108 106 103 98 91 89 93 92 86 83 92 111 121 124 123 109 90 75 70 74 78 75 68
16 74 102 108 107 64 106 141 75 125 109 272 199 98 79 289 290 241 180 168 167 159 159 160 155 157 162 164 152 137 133 131 125 127 124 122 132 134 135 142 146 148 149 147 143 141 140 138 133 130 129 127 128 129 127 122 114 110 111 116 118 118 113 105 109 106 105 112 111 106 106 110 111 111 111 108 103 98 91 90 91 90 89 86 91 112 121 116 105 87 73 70 75 79 77 73 67
309 188 135 131 164 145 166 181 148 148 140 266 313 51 129 208 259 216 171 141 141 142 148 150 147 152 153 145 140 134 143 163 147 127 122 129 139 143 149 155 152 153 154 148 145 145 146 144 140 141 144 142 138 139 139 134 131 130 127 128 128 117 106 111 140 138 123 118 117 113 111 117 120 116 112 107 104 106 101 98 98 96 94 87 90 108 113 100 84 73 65 65 74 76 72 67 59
265 159 85 137 193 151 114 141 145 137 116 2 341 38 193 208 270 209 145 116 114 115 124 134 138 144 139 139 152 153 160 172 145 119 117 126 136 141 153 164 164 158 154 150 148 150 153 154 152 151 150 150 148 144 143 141 137 130 124 127 128 121 111 110 125 135 130 123 122 121 121 124 125 118 112 112 119 123 117 111 108 104 95 88 95 104 98 83 73 68 64 62 65 67 63 57 50
274 11 333 234 186 132 100 78 82 88 95 349 330 114 267 26 38 232 136 111 100 106 122 133 136 136 138 150 163 161 158 155 139 131 127 124 129 134 146 160 171 172 166 161 159 158 159 157 155 156 155 157 157 150 143 139 130 122 124 132 138 132 123 129 133 128 124 125 128 133 135 132 124 117 123 132 131 132 131 123 116 110 102 99 103 102 89 76 70 68 69 64 57 54 53 51 47
151 277 242 247 53 90 100 103 71 59 93 257 274 149 165 134 174 244 150 119 110 117 124 122 118 120 123 128 133 133 129 124 117 111 110 115 116 122 141 152 164 172 171 169 166 162 161 160 160 162 165 168 168 158 144 138 129 131 144 149 152 141 84 154 151 131 122 124 125 137 145 141 136 133 138 143 136 135 137 132 127 122 116 109 104 101 90 78 72 69 69 67 53 42 49 56 52
178 230 227 89 56 347 37 117 136 105 109 178 305 13 181 189 197 193 171 154 146 139 128 123 120 115 111 104 94 90 89 95 104 105 111 122 125 141 157 151 153 161 162 161 160 158 160 164 167 170 173 175 170 156 145 140 137 147 151 148 170 337 59 146 158 147 139 134 124 130 139 146 157 149 139 141 139 140 142 140 138 132 123 112 100 94 88 82 74 62 55 59 51 41 48 62 57
191 275 321 70 148 176 170 154 142 129 137 160 186 340 265 227 205 178 175 171 158 155 145 136 133 122 115 106 92 84 79 79 78 63 44 30 31 81 175 165 156 158 159 159 158 160 166 170 172 177 179 175 169 163 160 156 153 159 168 206 291 67 103 120 135 139 138 135 130 132 134 144 159 159 153 143 136 140 141 138 138 137 128 112 97 86 81 77 64 46 39 44 51 44 46 57 55
159 258 283 283 293 122 138 144 119 126 135 144 137 241 262 247 204 172 173 172 165 159 150 145 140 128 117 106 100 90 76 77 77 72 67 36 17 8 344 313 167 158 157 160 163 163 170 178 180 182 187 188 187 185 179 171 166 166 146 120 123 121 116 115 118 118 119 122 124 129 133 137 142 147 153 147 142 143 142 136 135 134 122 102 90 84 80 72 54 40 35 39 49 44 40 45 41
159 185 213 202 186 74 32 315 318 103 123 148 146 173 262 260 188 169 167 161 160 153 142 140 133 119 106 96 102 103 100 107 114 117 131 138 113 101 36 322 326 170 161 157 157 159 166 180 185 186 187 188 196 201 195 180 161 138 117 115 122 125 123 120 116 113 113 116 118 123 131 134 131 132 139 144 147 146 146 144 136 126 111 93 84 81 82 76 59 46 38 38 41 36 31 31 25